This is the latest recevied weather packets stored in our database for station/object HP1MRA-15. If no packets are shown the sender has not sent any weather packets the latest 10 day(s).
| Time | Temp. | Humidity | Pressure | Rain* | Wind** | Luminosity | Snow |
|---|---|---|---|---|---|---|---|
| 1788657964 | 29.44° C | 70% | 1001 hPa | 0 mm | - | - | - |
| 1788657665 | 29.44° C | 73% | 1001 hPa | 0 mm | - | - | - |
| 1788657664 | 29.44° C | 72% | 1001 hPa | 0 mm | - | - | - |
| 1788657363 | 29.44° C | 71% | 1000.9 hPa | 0 mm | - | - | - |
| 1788657064 | 29.44° C | 69% | 1000.8 hPa | 0 mm | - | - | - |
| 1788656764 | 29.44° C | 70% | 1000.9 hPa | 0 mm | - | - | - |
| 1788656762 | 29.44° C | 70% | 1000.8 hPa | 0 mm | - | - | - |
| 1788656464 | 29.44° C | 69% | 1000.8 hPa | 0 mm | - | - | - |
| 1788656163 | 29.44° C | 71% | 1000.7 hPa | 0 mm | - | - | - |
| 1788655864 | 29.44° C | 72% | 1000.5 hPa | 0 mm | - | - | - |
| 1788655863 | 29.44° C | 72% | 1000.6 hPa | 0 mm | - | - | - |
| 1788655563 | 29.44° C | 73% | 1000.5 hPa | 0 mm | - | - | - |
| 1788655263 | 29.44° C | 72% | 1000.5 hPa | 0 mm | - | - | - |
| 1788654963 | 30° C | 70% | 1000.5 hPa | 0 mm | - | - | - |
| 1788654963 | 30° C | 70% | 1000.5 hPa | 0 mm | - | - | - |
| 1788654663 | 30° C | 69% | 1000.4 hPa | 0 mm | - | - | - |
| 1788654363 | 30° C | 67% | 1000.4 hPa | 0 mm | - | - | - |
| 1788654064 | 30° C | 67% | 1000.4 hPa | 0 mm | - | - | - |
| 1788654063 | 30.56° C | 67% | 1000.3 hPa | 0 mm | - | - | - |
| 1788653762 | 30° C | 67% | 1000.4 hPa | 0 mm | - | - | - |
| 1788653462 | 30.56° C | 65% | 1000.4 hPa | 0 mm | - | - | - |
| 1788653162 | 30.56° C | 65% | 1000.2 hPa | 0 mm | - | - | - |
| 1788653162 | 30.56° C | 65% | 1000.2 hPa | 0 mm | - | - | - |
| 1788652884 | 30.56° C | 62% | 999.9 hPa | 0 mm | - | - | - |
| 1788652558 | 30.56° C | 62% | 999.7 hPa | 0 mm | - | - | - |
* Rain latest hour (hover to see other rain measurements)
** Current wind speed in m/s (hover to see current wind gust speed)